Time,TemperatureF,DewpointF,PressureIn,WindDirection,WindDirectionDegrees,WindSpeedMPH,WindSpeedGustMPH,Humidity,HourlyPrecipIn,Conditions,Clouds,dailyrainin,SolarRadiationWatts/m^2,SoftwareType,DateUTC
2013-05-07 00:01:00,70.5,63.3,29.97,West,275,0.0,5.0,78,0.00,,SCT044,0.02,62.00,VWS V14.01,2013-05-07 04:01:00,
2013-05-07 00:06:00,70.4,63.6,29.97,West,275,0.0,2.0,79,0.00,,SCT044,0.00,62.00,VWS V14.01,2013-05-07 04:06:00,
2013-05-07 00:11:00,70.3,63.5,29.97,West,277,2.0,5.0,79,0.00,,SCT044,0.00,62.00,VWS V14.01,2013-05-07 04:11:00,
2013-05-07 00:16:00,70.1,63.3,29.97,West,277,2.0,5.0,79,0.00,,SCT044,0.00,62.00,VWS V14.01,2013-05-07 04:16:00,
2013-05-07 00:21:00,69.9,63.5,29.97,West,277,3.0,4.0,80,0.00,,SCT044,0.00,62.00,VWS V14.01,2013-05-07 04:21:00,
2013-05-07 00:26:00,69.8,63.4,29.97,West,277,2.0,4.0,80,0.00,,SCT044,0.00,62.00,VWS V14.01,2013-05-07 04:26:00,
2013-05-07 00:31:00,69.6,63.5,29.97,West,277,2.0,4.0,81,0.00,,SCT044,0.00,62.00,VWS V14.01,2013-05-07 04:31:00,
2013-05-07 00:36:00,69.4,63.3,29.97,West,277,4.0,5.0,81,0.00,,SCT044,0.00,62.00,VWS V14.01,2013-05-07 04:36:00,
2013-05-07 00:41:00,69.2,62.8,29.97,West,276,4.0,6.0,80,0.00,,SCT044,0.00,62.00,VWS V14.01,2013-05-07 04:41:00,
2013-05-07 00:46:00,69.0,62.6,29.97,West,273,4.0,7.0,80,0.00,,SCT044,0.00,62.00,VWS V14.01,2013-05-07 04:46:00,
2013-05-07 00:51:00,68.9,62.5,29.97,WNW,284,3.0,7.0,80,0.00,,SCT044,0.00,62.00,VWS V14.01,2013-05-07 04:51:00,
2013-05-07 00:56:00,68.8,62.4,29.97,WNW,282,3.0,6.0,80,0.00,,SCT044,0.00,62.00,VWS V14.01,2013-05-07 04:56:00,
2013-05-07 01:01:00,68.7,62.3,29.97,West,281,4.0,5.0,80,0.00,,SCT044,0.00,62.00,VWS V14.01,2013-05-07 05:01:00,
2013-05-07 01:06:00,68.6,62.2,29.97,WNW,284,1.0,6.0,80,0.00,,SCT044,0.00,62.00,VWS V14.01,2013-05-07 05:06:00,
2013-05-07 01:11:00,68.4,62.0,29.97,WNW,283,0.0,4.0,80,0.00,,SCT044,0.00,62.00,VWS V14.01,2013-05-07 05:11:00,
2013-05-07 01:16:00,68.2,62.2,29.97,WNW,283,0.0,3.0,81,0.00,,SCT044,0.00,62.00,VWS V14.01,2013-05-07 05:16:00,
2013-05-07 01:21:00,68.1,62.1,29.97,WNW,284,3.0,5.0,81,0.00,,SCT044,0.00,62.00,VWS V14.01,2013-05-07 05:21:00,
2013-05-07 01:26:00,67.8,61.8,29.97,WNW,290,4.0,9.0,81,0.00,,SCT044,0.00,62.00,VWS V14.01,2013-05-07 05:26:00,
2013-05-07 01:31:00,67.6,61.2,29.97,West,281,3.0,6.0,80,0.00,,SCT044,0.00,62.00,VWS V14.01,2013-05-07 05:31:00,
2013-05-07 01:36:00,67.5,61.1,29.97,West,277,4.0,5.0,80,0.00,,SCT044,0.00,62.00,VWS V14.01,2013-05-07 05:36:00,
2013-05-07 01:41:00,67.4,61.4,29.97,West,279,7.0,7.0,81,0.00,,SCT044,0.00,62.00,VWS V14.01,2013-05-07 05:41:00,
2013-05-07 01:46:00,67.2,61.2,29.97,West,271,4.0,6.0,81,0.00,,SCT044,0.00,62.00,VWS V14.01,2013-05-07 05:46:00,
2013-05-07 01:51:00,66.9,60.9,29.96,West,277,4.0,5.0,81,0.00,,SCT044,0.00,62.00,VWS V14.01,2013-05-07 05:51:00,
2013-05-07 01:56:00,66.8,60.8,29.96,West,277,2.0,4.0,81,0.00,,SCT044,0.00,62.00,VWS V14.01,2013-05-07 05:56:00,
2013-05-07 02:01:00,66.6,60.9,29.96,West,277,1.0,4.0,82,0.00,,SCT044,0.00,62.00,VWS V14.01,2013-05-07 06:01:00,
2013-05-07 02:06:00,66.5,60.8,29.96,West,277,3.0,5.0,82,0.00,,SCT044,0.00,62.00,VWS V14.01,2013-05-07 06:06:00,
2013-05-07 02:11:00,66.3,61.0,29.96,West,279,3.0,4.0,83,0.00,,SCT044,0.00,62.00,VWS V14.01,2013-05-07 06:11:00,
2013-05-07 02:16:00,66.2,60.9,29.96,West,279,2.0,3.0,83,0.00,,SCT044,0.00,62.00,VWS V14.01,2013-05-07 06:16:00,
2013-05-07 02:21:00,66.1,60.8,29.95,West,279,1.0,4.0,83,0.00,,SCT044,0.00,62.00,VWS V14.01,2013-05-07 06:21:00,
2013-05-07 02:26:00,65.9,60.9,29.95,West,279,1.0,5.0,84,0.00,,SCT044,0.00,62.00,VWS V14.01,2013-05-07 06:26:00,
2013-05-07 02:31:00,65.7,60.7,29.96,West,279,0.0,5.0,84,0.00,,SCT044,0.00,62.00,VWS V14.01,2013-05-07 06:31:00,
2013-05-07 02:36:00,65.6,60.6,29.95,West,279,1.0,3.0,84,0.00,,SCT044,0.00,62.00,VWS V14.01,2013-05-07 06:36:00,
2013-05-07 02:41:00,65.5,60.5,29.95,West,279,0.0,1.0,84,0.00,,SCT044,0.00,62.00,VWS V14.01,2013-05-07 06:41:00,
2013-05-07 02:46:00,65.4,60.8,29.95,West,279,0.0,2.0,85,0.00,,SCT044,0.00,62.00,VWS V14.01,2013-05-07 06:46:00,
2013-05-07 02:51:00,65.3,60.7,29.95,West,279,3.0,3.0,85,0.00,,SCT044,0.00,62.00,VWS V14.01,2013-05-07 06:51:00,
2013-05-07 02:56:00,65.1,60.5,29.95,West,279,1.0,4.0,85,0.00,,SCT044,0.00,62.00,VWS V14.01,2013-05-07 06:56:00,
2013-05-07 03:01:00,65.0,60.7,29.95,West,279,0.0,2.0,86,0.00,,SCT044,0.00,62.00,VWS V14.01,2013-05-07 07:01:00,
2013-05-07 03:06:00,64.9,60.6,29.95,West,279,2.0,3.0,86,0.00,,SCT044,0.00,62.00,VWS V14.01,2013-05-07 07:06:00,
2013-05-07 03:11:00,64.8,60.5,29.95,West,279,1.0,3.0,86,0.00,,SCT044,0.00,62.00,VWS V14.01,2013-05-07 07:11:00,
2013-05-07 03:16:00,64.7,60.4,29.95,West,279,2.0,4.0,86,0.00,,SCT044,0.00,62.00,VWS V14.01,2013-05-07 07:16:00,
2013-05-07 03:21:00,64.7,60.4,29.95,West,279,1.0,3.0,86,0.00,,SCT044,0.00,62.00,VWS V14.01,2013-05-07 07:21:00,
2013-05-07 03:26:00,64.7,60.8,29.95,West,279,0.0,2.0,87,0.00,,SCT044,0.00,62.00,VWS V14.01,2013-05-07 07:26:00,
2013-05-07 03:31:00,64.7,60.8,29.95,West,279,1.0,4.0,87,0.00,,SCT044,0.00,62.00,VWS V14.01,2013-05-07 07:31:00,
2013-05-07 03:36:00,64.7,60.8,29.95,West,279,2.0,4.0,87,0.00,,SCT044,0.00,62.00,VWS V14.01,2013-05-07 07:36:00,
2013-05-07 03:41:00,64.6,60.7,29.95,West,279,2.0,5.0,87,0.00,,SCT044,0.00,62.00,VWS V14.01,2013-05-07 07:41:00,
2013-05-07 03:46:00,64.6,60.7,29.95,West,279,1.0,2.0,87,0.00,,SCT044,0.00,62.00,VWS V14.01,2013-05-07 07:46:00,
2013-05-07 03:51:00,64.5,60.5,29.95,West,279,3.0,4.0,87,0.00,,SCT044,0.00,62.00,VWS V14.01,2013-05-07 07:51:00,
2013-05-07 03:56:00,64.4,60.8,29.95,West,279,2.0,3.0,88,0.00,,SCT044,0.00,62.00,VWS V14.01,2013-05-07 07:56:00,
2013-05-07 04:01:00,64.4,60.8,29.95,West,279,1.0,4.0,88,0.00,,SCT044,0.00,62.00,VWS V14.01,2013-05-07 08:01:00,
2013-05-07 04:06:00,64.3,60.7,29.95,West,279,4.0,4.0,88,0.00,,SCT044,0.00,62.00,VWS V14.01,2013-05-07 08:06:00,
2013-05-07 04:11:00,64.2,60.6,29.95,West,279,2.0,3.0,88,0.00,,SCT044,0.00,62.00,VWS V14.01,2013-05-07 08:11:00,
2013-05-07 04:16:00,64.2,60.6,29.96,West,279,1.0,4.0,88,0.00,,SCT044,0.00,62.00,VWS V14.01,2013-05-07 08:16:00,
2013-05-07 04:21:00,64.1,60.5,29.95,West,279,0.0,1.0,88,0.00,,SCT044,0.00,62.00,VWS V14.01,2013-05-07 08:21:00,
2013-05-07 04:26:00,64.0,60.7,29.96,West,279,0.0,1.0,89,0.00,,SCT044,0.00,62.00,VWS V14.01,2013-05-07 08:26:00,
2013-05-07 04:31:00,64.0,60.7,29.95,West,279,1.0,3.0,89,0.00,,SCT044,0.00,62.00,VWS V14.01,2013-05-07 08:31:00,
2013-05-07 04:36:00,63.9,60.6,29.95,West,279,1.0,3.0,89,0.00,,SCT044,0.00,62.00,VWS V14.01,2013-05-07 08:36:00,
2013-05-07 04:41:00,63.9,60.6,29.95,West,279,2.0,3.0,89,0.00,,SCT044,0.00,62.00,VWS V14.01,2013-05-07 08:41:00,
2013-05-07 04:46:00,63.8,60.5,29.95,West,279,2.0,2.0,89,0.00,,SCT044,0.00,62.00,VWS V14.01,2013-05-07 08:46:00,
2013-05-07 04:51:00,63.8,60.5,29.96,West,279,2.0,4.0,89,0.00,,SCT044,0.00,62.00,VWS V14.01,2013-05-07 08:51:00,
2013-05-07 04:56:00,63.8,60.5,29.96,West,279,4.0,4.0,89,0.00,,SCT044,0.00,62.00,VWS V14.01,2013-05-07 08:56:00,
2013-05-07 05:01:00,63.7,60.7,29.95,West,279,0.0,6.0,90,0.00,,SCT044,0.00,62.00,VWS V14.01,2013-05-07 09:01:00,
2013-05-07 05:06:00,63.7,60.7,29.95,West,279,1.0,4.0,90,0.00,,SCT044,0.00,62.00,VWS V14.01,2013-05-07 09:06:00,
2013-05-07 05:11:00,63.7,60.7,29.96,West,279,1.0,3.0,90,0.00,,SCT044,0.00,62.00,VWS V14.01,2013-05-07 09:11:00,
2013-05-07 05:16:00,63.7,60.7,29.96,West,279,3.0,5.0,90,0.00,,SCT044,0.00,62.00,VWS V14.01,2013-05-07 09:16:00,
2013-05-07 05:21:00,63.6,60.6,29.96,West,279,2.0,4.0,90,0.00,,SCT044,0.00,62.00,VWS V14.01,2013-05-07 09:21:00,
2013-05-07 05:26:00,63.6,60.6,29.96,West,279,1.0,3.0,90,0.00,,SCT044,0.00,62.00,VWS V14.01,2013-05-07 09:26:00,
2013-05-07 05:31:00,63.6,60.6,29.96,West,279,2.0,2.0,90,0.00,,SCT044,0.00,62.00,VWS V14.01,2013-05-07 09:31:00,
2013-05-07 05:36:00,63.6,60.6,29.96,West,279,0.0,4.0,90,0.00,,SCT044,0.00,62.00,VWS V14.01,2013-05-07 09:36:00,
2013-05-07 05:41:00,63.6,60.6,29.96,West,279,1.0,3.0,90,0.00,,SCT044,0.00,62.00,VWS V14.01,2013-05-07 09:41:00,
2013-05-07 05:46:00,63.5,60.5,29.96,West,279,0.0,2.0,90,0.00,,SCT044,0.00,62.00,VWS V14.01,2013-05-07 09:46:00,
2013-05-07 05:51:00,63.5,60.5,29.97,West,279,2.0,4.0,90,0.00,,SCT044,0.00,62.00,VWS V14.01,2013-05-07 09:51:00,
2013-05-07 05:56:00,63.5,60.5,29.97,West,279,0.0,3.0,90,0.00,,SCT044,0.00,62.00,VWS V14.01,2013-05-07 09:56:00,
2013-05-07 06:01:00,63.5,60.5,29.97,West,279,3.0,3.0,90,0.00,,SCT044,0.00,62.00,VWS V14.01,2013-05-07 10:01:00,
2013-05-07 06:06:00,63.5,60.5,29.97,West,279,0.0,2.0,90,0.00,,SCT044,0.00,62.00,VWS V14.01,2013-05-07 10:06:00,
2013-05-07 06:11:00,63.4,60.4,29.96,West,279,0.0,1.0,90,0.00,,SCT044,0.00,62.00,VWS V14.01,2013-05-07 10:11:00,
2013-05-07 06:16:00,63.4,60.4,29.97,West,279,0.0,1.0,90,0.00,,SCT044,0.00,62.00,VWS V14.01,2013-05-07 10:16:00,
2013-05-07 06:21:00,63.4,60.4,29.97,West,279,0.0,0.0,90,0.00,,SCT044,0.00,62.00,VWS V14.01,2013-05-07 10:21:00,
2013-05-07 06:26:00,63.3,60.3,29.97,West,279,0.0,1.0,90,0.00,,SCT044,0.00,62.00,VWS V14.01,2013-05-07 10:26:00,
2013-05-07 06:31:00,63.3,60.3,29.97,West,279,2.0,4.0,90,0.00,,SCT044,0.00,63.00,VWS V14.01,2013-05-07 10:31:00,
2013-05-07 06:36:00,63.2,60.2,29.97,West,279,3.0,3.0,90,0.00,,SCT044,0.00,65.00,VWS V14.01,2013-05-07 10:36:00,
2013-05-07 06:41:00,63.2,60.2,29.98,West,279,0.0,3.0,90,0.00,,SCT044,0.00,67.00,VWS V14.01,2013-05-07 10:41:00,
2013-05-07 06:46:00,63.1,60.1,29.98,West,279,3.0,4.0,90,0.00,,SCT044,0.00,70.00,VWS V14.01,2013-05-07 10:46:00,
2013-05-07 06:51:00,63.1,60.4,29.98,West,279,2.0,4.0,91,0.00,,SCT044,0.00,74.00,VWS V14.01,2013-05-07 10:51:00,
2013-05-07 06:56:00,63.1,60.4,29.98,West,279,1.0,3.0,91,0.00,,SCT044,0.00,77.00,VWS V14.01,2013-05-07 10:56:00,
2013-05-07 07:01:00,63.2,60.5,29.98,West,279,2.0,4.0,91,0.00,,CLR,0.00,86.00,VWS V14.01,2013-05-07 11:01:00,
2013-05-07 07:06:00,63.2,60.5,29.98,NW,308,3.0,6.0,91,0.00,,CLR,0.00,97.00,VWS V14.01,2013-05-07 11:06:00,
2013-05-07 07:11:00,63.3,60.6,29.98,NW,323,2.0,5.0,91,0.00,,CLR,0.00,109.00,VWS V14.01,2013-05-07 11:11:00,
2013-05-07 07:16:00,63.5,60.8,29.98,NNW,330,3.0,4.0,91,0.00,,CLR,0.00,123.00,VWS V14.01,2013-05-07 11:16:00,
2013-05-07 07:21:00,63.7,61.0,29.99,NNW,331,2.0,5.0,91,0.00,,CLR,0.00,137.00,VWS V14.01,2013-05-07 11:21:00,
2013-05-07 07:26:00,63.7,61.0,29.99,NW,315,3.0,6.0,91,0.00,,CLR,0.00,149.00,VWS V14.01,2013-05-07 11:26:00,
2013-05-07 07:31:00,63.5,60.5,29.99,NNW,327,7.0,7.0,90,0.00,,CLR,0.00,163.00,VWS V14.01,2013-05-07 11:31:00,
2013-05-07 07:36:00,63.3,60.3,29.99,NNW,328,4.0,7.0,90,0.00,,CLR,0.00,179.00,VWS V14.01,2013-05-07 11:36:00,
2013-05-07 07:41:00,63.6,60.6,29.99,NNW,333,4.0,5.0,90,0.00,,CLR,0.00,199.00,VWS V14.01,2013-05-07 11:41:00,
2013-05-07 07:46:00,63.9,60.6,30.00,NNW,331,8.0,8.0,89,0.00,,CLR,0.00,218.00,VWS V14.01,2013-05-07 11:46:00,
2013-05-07 07:51:00,64.1,60.5,30.00,NW,325,4.0,8.0,88,0.00,,CLR,0.00,236.00,VWS V14.01,2013-05-07 11:51:00,
2013-05-07 07:56:00,64.5,60.9,30.00,NW,315,5.0,7.0,88,0.00,,CLR,0.00,253.00,VWS V14.01,2013-05-07 11:56:00,
2013-05-07 08:01:00,64.9,60.9,30.00,NNW,327,6.0,7.0,87,0.00,,CLR,0.00,267.00,VWS V14.01,2013-05-07 12:01:00,
2013-05-07 08:06:00,65.2,60.9,30.00,NNW,335,5.0,7.0,86,0.00,,CLR,0.00,285.00,VWS V14.01,2013-05-07 12:06:00,
2013-05-07 08:11:00,65.4,60.8,30.00,NW,317,4.0,6.0,85,0.00,,CLR,0.00,301.00,VWS V14.01,2013-05-07 12:11:00,
2013-05-07 08:16:00,65.8,61.2,30.00,NW,313,9.0,9.0,85,0.00,,CLR,0.00,316.00,VWS V14.01,2013-05-07 12:16:00,
2013-05-07 08:21:00,66.0,61.0,30.00,NW,311,0.0,9.0,84,0.00,,CLR,0.00,332.00,VWS V14.01,2013-05-07 12:21:00,
2013-05-07 08:26:00,66.6,61.3,30.00,North,349,5.0,9.0,83,0.00,,CLR,0.00,352.00,VWS V14.01,2013-05-07 12:26:00,
2013-05-07 08:31:00,66.9,60.9,30.00,NW,323,6.0,6.0,81,0.00,,CLR,0.00,366.00,VWS V14.01,2013-05-07 12:31:00,
2013-05-07 08:36:00,67.2,61.2,30.01,NNW,334,3.0,6.0,81,0.00,,CLR,0.00,383.00,VWS V14.01,2013-05-07 12:36:00,
2013-05-07 08:41:00,67.7,61.3,30.01,NNW,329,3.0,7.0,80,0.00,,CLR,0.00,401.00,VWS V14.01,2013-05-07 12:41:00,
2013-05-07 08:46:00,68.0,60.9,30.01,NNW,342,3.0,10.0,78,0.00,,CLR,0.00,418.00,VWS V14.01,2013-05-07 12:46:00,
2013-05-07 08:51:00,68.3,60.8,30.01,WNW,301,4.0,5.0,77,0.00,,CLR,0.00,436.00,VWS V14.01,2013-05-07 12:51:00,
2013-05-07 08:56:00,68.4,60.9,30.01,NNW,346,3.0,6.0,77,0.00,,CLR,0.00,452.00,VWS V14.01,2013-05-07 12:56:00,
2013-05-07 09:01:00,68.8,60.9,30.01,NNW,336,2.0,6.0,76,0.00,,CLR,0.00,469.00,VWS V14.01,2013-05-07 13:01:00,
2013-05-07 09:06:00,69.3,61.4,30.01,NNW,343,3.0,5.0,76,0.00,,CLR,0.00,483.00,VWS V14.01,2013-05-07 13:06:00,
2013-05-07 09:11:00,69.6,61.3,30.02,NNW,338,2.0,5.0,75,0.00,,CLR,0.00,501.00,VWS V14.01,2013-05-07 13:11:00,
2013-05-07 09:16:00,69.7,60.7,30.01,WNW,292,5.0,7.0,73,0.00,,CLR,0.00,515.00,VWS V14.01,2013-05-07 13:16:00,
2013-05-07 09:21:00,69.4,60.4,30.02,WSW,257,6.0,10.0,73,0.00,,CLR,0.00,533.00,VWS V14.01,2013-05-07 13:21:00,
2013-05-07 09:26:00,69.4,60.4,30.02,NW,314,7.0,9.0,73,0.00,,CLR,0.00,548.00,VWS V14.01,2013-05-07 13:26:00,
2013-05-07 09:31:00,69.5,60.5,30.02,WNW,299,3.0,9.0,73,0.00,,CLR,0.00,563.00,VWS V14.01,2013-05-07 13:31:00,
2013-05-07 09:36:00,69.7,60.7,30.02,NW,306,2.0,7.0,73,0.00,,CLR,0.00,573.00,VWS V14.01,2013-05-07 13:36:00,
2013-05-07 09:41:00,70.2,60.8,30.02,WNW,284,4.0,9.0,72,0.00,,CLR,0.00,596.00,VWS V14.01,2013-05-07 13:41:00,
2013-05-07 09:46:00,70.2,60.4,30.02,West,271,4.0,9.0,71,0.00,,CLR,0.00,608.00,VWS V14.01,2013-05-07 13:46:00,
2013-05-07 09:51:00,70.5,61.0,30.02,NNW,338,6.0,8.0,72,0.00,,CLR,0.00,596.00,VWS V14.01,2013-05-07 13:51:00,
2013-05-07 09:56:00,71.0,61.1,30.02,WNW,302,1.0,6.0,71,0.00,,CLR,0.00,636.00,VWS V14.01,2013-05-07 13:56:00,
2013-05-07 10:01:00,71.1,60.8,30.02,NNW,342,4.0,9.0,70,0.00,,SKC,0.00,654.00,VWS V14.01,2013-05-07 14:01:00,
2013-05-07 10:06:00,71.5,61.6,30.02,NNW,327,6.0,6.0,71,0.00,,SKC,0.00,670.00,VWS V14.01,2013-05-07 14:06:00,
2013-05-07 10:11:00,72.0,61.7,30.02,WNW,288,7.0,11.0,70,0.00,,SKC,0.00,684.00,VWS V14.01,2013-05-07 14:11:00,
2013-05-07 10:16:00,72.2,61.9,30.02,West,272,6.0,7.0,70,0.00,,SKC,0.00,698.00,VWS V14.01,2013-05-07 14:16:00,
2013-05-07 10:21:00,72.1,61.4,30.02,West,261,10.0,11.0,69,0.00,,SKC,0.00,710.00,VWS V14.01,2013-05-07 14:21:00,
2013-05-07 10:26:00,72.4,61.7,30.02,SW,219,5.0,11.0,69,0.00,,SKC,0.00,724.00,VWS V14.01,2013-05-07 14:26:00,
2013-05-07 10:31:00,73.0,61.8,30.02,WNW,297,6.0,6.0,68,0.00,,SKC,0.00,733.00,VWS V14.01,2013-05-07 14:31:00,
2013-05-07 10:36:00,73.1,61.5,30.02,WNW,297,3.0,14.0,67,0.00,,SKC,0.00,751.00,VWS V14.01,2013-05-07 14:36:00,
2013-05-07 10:41:00,73.1,61.5,30.02,West,271,3.0,13.0,67,0.00,,SKC,0.00,765.00,VWS V14.01,2013-05-07 14:41:00,
2013-05-07 10:46:00,73.1,61.9,30.02,NW,306,4.0,8.0,68,0.00,,SKC,0.00,759.00,VWS V14.01,2013-05-07 14:46:00,
2013-05-07 10:51:00,73.8,62.6,30.02,WNW,288,8.0,9.0,68,0.00,,SKC,0.00,779.00,VWS V14.01,2013-05-07 14:51:00,
2013-05-07 10:56:00,73.8,61.7,30.03,SW,231,2.0,7.0,66,0.00,,SKC,0.00,798.00,VWS V14.01,2013-05-07 14:56:00,
2013-05-07 11:01:00,74.0,62.4,30.03,SW,225,4.0,10.0,67,0.00,,FEW035,0.00,798.00,VWS V14.01,2013-05-07 15:01:00,
2013-05-07 11:06:00,74.5,62.4,30.03,WNW,297,3.0,7.0,66,0.00,,FEW035,0.00,856.00,VWS V14.01,2013-05-07 15:06:00,
2013-05-07 11:11:00,75.1,63.0,30.02,WNW,303,7.0,7.0,66,0.00,,FEW035,0.00,842.00,VWS V14.01,2013-05-07 15:11:00,
2013-05-07 11:16:00,75.6,62.6,30.02,West,277,7.0,12.0,64,0.00,,FEW035,0.00,865.00,VWS V14.01,2013-05-07 15:16:00,
2013-05-07 11:21:00,75.4,62.4,30.03,WNW,292,10.0,11.0,64,0.00,,FEW035,0.00,947.00,VWS V14.01,2013-05-07 15:21:00,
2013-05-07 11:26:00,75.1,62.1,30.02,WNW,284,0.0,9.0,64,0.00,,FEW035,0.00,865.00,VWS V14.01,2013-05-07 15:26:00,
2013-05-07 11:31:00,75.0,62.5,30.02,SW,223,0.0,10.0,65,0.00,,FEW035,0.00,225.00,VWS V14.01,2013-05-07 15:31:00,
2013-05-07 11:36:00,76.0,63.0,30.03,NW,316,2.0,10.0,64,0.00,,FEW035,0.00,907.00,VWS V14.01,2013-05-07 15:36:00,
2013-05-07 11:41:00,76.2,62.2,30.02,WSW,257,9.0,10.0,62,0.00,,FEW035,0.00,990.00,VWS V14.01,2013-05-07 15:41:00,
2013-05-07 11:46:00,76.3,61.9,30.03,West,281,5.0,12.0,61,0.00,,FEW035,0.00,265.00,VWS V14.01,2013-05-07 15:46:00,
2013-05-07 11:51:00,76.0,62.0,30.02,SW,227,10.0,11.0,62,0.00,,FEW035,0.00,933.00,VWS V14.01,2013-05-07 15:51:00,
2013-05-07 11:56:00,76.6,62.6,30.02,SW,217,1.0,8.0,62,0.00,,SCT037,0.00,1049.00,VWS V14.01,2013-05-07 15:56:00,
2013-05-07 12:01:00,77.6,63.6,30.02,West,272,8.0,8.0,62,0.00,,SCT037,0.00,1067.00,VWS V14.01,2013-05-07 16:01:00,
2013-05-07 12:06:00,77.8,62.8,30.02,WSW,250,8.0,12.0,60,0.00,,SCT037,0.00,1069.00,VWS V14.01,2013-05-07 16:06:00,
2013-05-07 12:11:00,78.0,63.5,30.01,WNW,287,5.0,5.0,61,0.00,,SCT037,0.00,1069.00,VWS V14.01,2013-05-07 16:11:00,
2013-05-07 12:16:00,78.2,63.2,30.01,West,260,10.0,11.0,60,0.00,,SCT037,0.00,1011.00,VWS V14.01,2013-05-07 16:16:00,
2013-05-07 12:21:00,78.9,62.9,30.01,SW,223,0.0,11.0,58,0.00,,SCT037,0.00,1039.00,VWS V14.01,2013-05-07 16:21:00,
2013-05-07 12:26:00,79.3,62.3,30.01,West,275,3.0,11.0,56,0.00,,SCT037,0.00,1016.00,VWS V14.01,2013-05-07 16:26:00,
2013-05-07 12:31:00,79.5,63.0,30.01,SW,221,3.0,6.0,57,0.00,,SCT037,0.00,1021.00,VWS V14.01,2013-05-07 16:31:00,
2013-05-07 12:36:00,80.5,63.9,30.01,WNW,284,0.0,12.0,57,0.00,,SCT037,0.00,1034.00,VWS V14.01,2013-05-07 16:36:00,
2013-05-07 12:41:00,81.4,63.7,30.01,WNW,282,7.0,12.0,55,0.00,,SCT037,0.00,1107.00,VWS V14.01,2013-05-07 16:41:00,
2013-05-07 12:46:00,80.2,62.6,30.00,WNW,297,8.0,11.0,55,0.00,,SCT037,0.00,360.00,VWS V14.01,2013-05-07 16:46:00,
2013-05-07 12:51:00,79.1,62.1,30.00,North,360,4.0,9.0,56,0.00,,SCT037,0.00,403.00,VWS V14.01,2013-05-07 16:51:00,
2013-05-07 12:56:00,79.9,62.8,30.00,WNW,294,2.0,16.0,56,0.01,,SCT040,0.01,1081.00,VWS V14.01,2013-05-07 16:56:00,
2013-05-07 13:01:00,80.0,62.4,30.00,West,259,4.0,14.0,55,0.01,,SCT040,0.01,281.00,VWS V14.01,2013-05-07 17:01:00,
2013-05-07 13:06:00,80.7,62.5,30.00,WNW,291,3.0,10.0,54,0.01,,SCT040,0.01,1049.00,VWS V14.01,2013-05-07 17:06:00,
2013-05-07 13:11:00,80.6,63.0,30.00,SW,231,1.0,10.0,55,0.01,,SCT040,0.01,1125.00,VWS V14.01,2013-05-07 17:11:00,
2013-05-07 13:16:00,81.0,62.8,30.00,WSW,243,4.0,6.0,54,0.01,,SCT040,0.01,271.00,VWS V14.01,2013-05-07 17:16:00,
2013-05-07 13:21:00,81.9,63.1,30.00,SW,229,5.0,11.0,53,0.01,,SCT040,0.01,1194.00,VWS V14.01,2013-05-07 17:21:00,
2013-05-07 13:26:00,83.1,63.7,29.99,SSE,148,1.0,7.0,52,0.01,,SCT040,0.01,1158.00,VWS V14.01,2013-05-07 17:26:00,
2013-05-07 13:31:00,82.8,62.8,30.00,WSW,242,1.0,14.0,51,0.01,,SCT040,0.01,1165.00,VWS V14.01,2013-05-07 17:31:00,
2013-05-07 13:36:00,81.9,63.1,30.00,SW,236,1.0,11.0,53,0.01,,SCT040,0.01,536.00,VWS V14.01,2013-05-07 17:36:00,
2013-05-07 13:41:00,81.1,62.4,29.99,West,267,11.0,12.0,53,0.01,,SCT040,0.01,315.00,VWS V14.01,2013-05-07 17:41:00,
2013-05-07 13:46:00,81.0,62.3,29.99,SW,236,5.0,10.0,53,0.01,,SCT040,0.01,1069.00,VWS V14.01,2013-05-07 17:46:00,
2013-05-07 13:51:00,82.1,62.8,29.99,West,265,2.0,10.0,52,0.01,,SCT040,0.01,513.00,VWS V14.01,2013-05-07 17:51:00,
2013-05-07 13:56:00,82.8,62.3,29.99,SW,232,10.0,10.0,50,0.01,,SCT040,0.01,1037.00,VWS V14.01,2013-05-07 17:56:00,
2013-05-07 14:01:00,83.1,62.5,29.99,SW,219,7.0,12.0,50,0.00,,SCT040,0.01,1037.00,VWS V14.01,2013-05-07 18:01:00,
2013-05-07 14:06:00,83.4,62.8,29.98,South,186,3.0,10.0,50,0.00,,SCT045,0.01,397.00,VWS V14.01,2013-05-07 18:06:00,
2013-05-07 14:10:00,83.3,62.7,29.98,WNW,290,2.0,9.0,50,0.00,,SCT045,0.01,311.00,VWS V14.01,2013-05-07 18:10:00,
2013-05-07 14:15:00,82.5,62.6,29.98,WSW,254,6.0,12.0,51,0.00,,SCT045,0.01,1067.00,VWS V14.01,2013-05-07 18:15:00,
2013-05-07 14:20:00,82.2,62.8,29.98,West,263,1.0,13.0,52,0.00,,SCT045,0.01,378.00,VWS V14.01,2013-05-07 18:20:00,
2013-05-07 14:25:00,82.8,63.9,29.98,East,95,2.0,4.0,53,0.00,,SCT045,0.01,1100.00,VWS V14.01,2013-05-07 18:25:00,
2013-05-07 14:30:00,83.1,62.5,29.97,WSW,248,1.0,6.0,50,0.00,,SCT045,0.01,1083.00,VWS V14.01,2013-05-07 18:30:00,
2013-05-07 14:36:00,83.2,63.8,29.98,NW,305,4.0,11.0,52,0.00,,SCT045,0.01,311.00,VWS V14.01,2013-05-07 18:36:00,
2013-05-07 14:41:00,82.7,62.2,29.98,West,262,3.0,10.0,50,0.00,,SCT045,0.01,1032.00,VWS V14.01,2013-05-07 18:41:00,
2013-05-07 14:46:00,82.8,62.3,29.97,WNW,294,9.0,11.0,50,0.00,,SCT045,0.01,265.00,VWS V14.01,2013-05-07 18:46:00,
2013-05-07 14:51:00,82.8,61.7,29.97,South,188,6.0,14.0,49,0.00,,SCT045,0.01,974.00,VWS V14.01,2013-05-07 18:51:00,
2013-05-07 14:56:00,84.2,61.8,29.97,SSW,209,6.0,11.0,47,0.00,,SCT045,0.01,997.00,VWS V14.01,2013-05-07 18:56:00,
2013-05-07 15:01:00,84.0,61.6,29.97,West,264,2.0,13.0,47,0.00,,SCT045,0.01,1005.00,VWS V14.01,2013-05-07 19:01:00,
2013-05-07 15:06:00,84.0,62.8,29.96,WNW,286,5.0,5.0,49,0.00,,SCT045,0.01,937.00,VWS V14.01,2013-05-07 19:06:00,
2013-05-07 15:11:00,84.6,61.6,29.96,South,183,3.0,10.0,46,0.00,,SCT045,0.01,960.00,VWS V14.01,2013-05-07 19:11:00,
2013-05-07 15:16:00,85.6,61.8,29.96,SSW,209,2.0,12.0,45,0.00,,SCT045,0.01,983.00,VWS V14.01,2013-05-07 19:16:00,
2013-05-07 15:21:00,86.0,62.2,29.97,West,272,5.0,10.0,45,0.00,,SCT045,0.01,991.00,VWS V14.01,2013-05-07 19:21:00,
2013-05-07 15:26:00,85.6,60.6,29.96,SW,219,1.0,12.0,43,0.00,,SCT045,0.01,944.00,VWS V14.01,2013-05-07 19:26:00,
2013-05-07 15:31:00,85.4,61.0,29.96,WSW,242,15.0,15.0,44,0.00,,SCT045,0.01,914.00,VWS V14.01,2013-05-07 19:31:00,
2013-05-07 15:36:00,85.9,61.5,29.95,South,185,5.0,9.0,44,0.00,,SCT045,0.01,928.00,VWS V14.01,2013-05-07 19:36:00,
2013-05-07 15:41:00,85.9,60.8,29.95,SW,235,6.0,16.0,43,0.00,,SCT045,0.01,930.00,VWS V14.01,2013-05-07 19:41:00,
2013-05-07 15:45:00,85.8,60.7,29.95,SW,214,2.0,6.0,43,0.00,,SCT045,0.01,884.00,VWS V14.01,2013-05-07 19:45:00,
2013-05-07 15:50:00,85.7,60.0,29.95,West,268,2.0,13.0,42,0.00,,SCT045,0.01,837.00,VWS V14.01,2013-05-07 19:50:00,
2013-05-07 15:55:00,86.4,61.3,29.95,SW,224,1.0,10.0,43,0.00,,BKN070,0.01,874.00,VWS V14.01,2013-05-07 19:55:00,
2013-05-07 16:00:00,86.4,60.6,29.95,SW,215,6.0,9.0,42,0.00,,BKN070,0.01,877.00,VWS V14.01,2013-05-07 20:00:00,
2013-05-07 16:05:00,86.4,61.3,29.95,SW,222,7.0,11.0,43,0.00,,BKN070,0.01,795.00,VWS V14.01,2013-05-07 20:05:00,
2013-05-07 16:10:00,86.0,58.9,29.95,SW,216,8.0,11.0,40,0.00,,BKN070,0.01,847.00,VWS V14.01,2013-05-07 20:10:00,
2013-05-07 16:15:00,86.0,60.9,29.95,SSW,206,6.0,9.0,43,0.00,,BKN070,0.01,802.00,VWS V14.01,2013-05-07 20:15:00,
2013-05-07 16:20:00,86.1,60.3,29.95,WSW,244,2.0,14.0,42,0.00,,BKN070,0.01,773.00,VWS V14.01,2013-05-07 20:20:00,
2013-05-07 16:25:00,85.9,59.5,29.95,South,191,2.0,5.0,41,0.00,,BKN070,0.01,777.00,VWS V14.01,2013-05-07 20:25:00,
2013-05-07 16:30:00,86.0,60.9,29.95,WSW,248,10.0,10.0,43,0.00,,BKN070,0.01,710.00,VWS V14.01,2013-05-07 20:30:00,
2013-05-07 16:35:00,86.0,59.6,29.94,WSW,248,2.0,11.0,41,0.00,,BKN070,0.01,705.00,VWS V14.01,2013-05-07 20:35:00,
2013-05-07 16:40:00,86.0,59.6,29.94,SW,215,6.0,7.0,41,0.00,,BKN070,0.01,686.00,VWS V14.01,2013-05-07 20:40:00,
2013-05-07 16:45:00,86.2,59.1,29.94,SW,229,3.0,14.0,40,0.00,,BKN070,0.01,656.00,VWS V14.01,2013-05-07 20:45:00,
2013-05-07 16:50:00,86.1,59.0,29.94,WSW,249,6.0,11.0,40,0.00,,BKN070,0.01,640.00,VWS V14.01,2013-05-07 20:50:00,
2013-05-07 16:55:00,85.7,60.0,29.94,West,279,4.0,6.0,42,0.00,,BKN060,0.01,628.00,VWS V14.01,2013-05-07 20:55:00,
2013-05-07 17:00:00,86.1,59.7,29.95,West,277,4.0,13.0,41,0.00,,BKN060,0.01,621.00,VWS V14.01,2013-05-07 21:00:00,
2013-05-07 17:05:00,86.2,59.1,29.94,South,178,5.0,11.0,40,0.00,,BKN060,0.01,603.00,VWS V14.01,2013-05-07 21:05:00,
2013-05-07 17:10:00,86.2,59.8,29.94,WSW,253,9.0,9.0,41,0.00,,BKN060,0.01,584.00,VWS V14.01,2013-05-07 21:10:00,
2013-05-07 17:15:00,86.2,59.1,29.95,West,277,10.0,13.0,40,0.00,,BKN060,0.01,550.00,VWS V14.01,2013-05-07 21:15:00,
2013-05-07 17:20:00,85.7,60.0,29.95,SW,216,4.0,10.0,42,0.00,,BKN060,0.01,531.00,VWS V14.01,2013-05-07 21:20:00,
2013-05-07 17:25:00,85.4,59.0,29.95,WSW,248,2.0,11.0,41,0.00,,BKN060,0.01,167.00,VWS V14.01,2013-05-07 21:25:00,
2013-05-07 17:30:00,84.7,60.4,29.95,SW,223,3.0,9.0,44,0.00,,BKN060,0.01,534.00,VWS V14.01,2013-05-07 21:30:00,
2013-05-07 17:35:00,84.6,60.3,29.95,WSW,257,3.0,9.0,44,0.00,,BKN060,0.01,541.00,VWS V14.01,2013-05-07 21:35:00,
2013-05-07 17:40:00,84.9,60.6,29.95,SW,230,0.0,6.0,44,0.00,,BKN060,0.01,459.00,VWS V14.01,2013-05-07 21:40:00,
2013-05-07 17:45:00,84.7,59.8,29.95,West,281,9.0,13.0,43,0.00,,BKN060,0.01,476.00,VWS V14.01,2013-05-07 21:45:00,
2013-05-07 17:50:00,84.2,60.6,29.95,WSW,251,4.0,9.0,45,0.00,,BKN060,0.01,475.00,VWS V14.01,2013-05-07 21:50:00,
2013-05-07 17:55:00,84.1,59.9,29.95,SW,236,5.0,9.0,44,0.00,,BKN0605,0.01,446.00,VWS V14.01,2013-05-07 21:55:00,
2013-05-07 18:00:00,84.3,60.7,29.95,WSW,252,1.0,7.0,45,0.00,,BKN0605,0.01,427.00,VWS V14.01,2013-05-07 22:00:00,
2013-05-07 18:05:00,84.3,60.0,29.95,WSW,249,3.0,11.0,44,0.00,,BKN0605,0.01,141.00,VWS V14.01,2013-05-07 22:05:00,
2013-05-07 18:10:00,84.1,61.1,29.95,West,273,1.0,5.0,46,0.00,,BKN0605,0.01,367.00,VWS V14.01,2013-05-07 22:10:00,
2013-05-07 18:15:00,83.8,60.8,29.95,WNW,284,6.0,6.0,46,0.00,,BKN0605,0.01,350.00,VWS V14.01,2013-05-07 22:15:00,
2013-05-07 18:20:00,83.4,60.5,29.94,WSW,245,5.0,6.0,46,0.00,,BKN0605,0.01,330.00,VWS V14.01,2013-05-07 22:20:00,
2013-05-07 18:25:00,83.1,60.8,29.95,WNW,288,7.0,8.0,47,0.00,,BKN0605,0.01,318.00,VWS V14.01,2013-05-07 22:25:00,
2013-05-07 18:30:00,83.0,61.3,29.95,WSW,248,3.0,9.0,48,0.00,,BKN0605,0.01,316.00,VWS V14.01,2013-05-07 22:30:00,
2013-05-07 18:35:00,83.1,60.8,29.95,WNW,284,7.0,14.0,47,0.00,,BKN0605,0.01,297.00,VWS V14.01,2013-05-07 22:35:00,
2013-05-07 18:40:00,82.7,60.4,29.95,WNW,301,2.0,12.0,47,0.00,,BKN0605,0.01,269.00,VWS V14.01,2013-05-07 22:40:00,
2013-05-07 18:45:00,82.5,60.8,29.95,West,279,0.0,9.0,48,0.00,,BKN0605,0.01,237.00,VWS V14.01,2013-05-07 22:45:00,
2013-05-07 18:50:00,82.4,61.3,29.95,WNW,288,3.0,12.0,49,0.00,,BKN0605,0.01,209.00,VWS V14.01,2013-05-07 22:50:00,
2013-05-07 18:55:00,82.1,60.5,29.95,WSW,250,2.0,10.0,48,0.00,,BKN0605,0.01,188.00,VWS V14.01,2013-05-07 22:55:00,
2013-05-07 19:00:00,81.7,60.7,29.95,West,261,1.0,13.0,49,0.00,,BKN0605,0.01,171.00,VWS V14.01,2013-05-07 23:00:00,
2013-05-07 19:05:00,81.4,60.4,29.95,West,275,5.0,7.0,49,0.00,,BKN0605,0.01,158.00,VWS V14.01,2013-05-07 23:05:00,
2013-05-07 19:10:00,81.1,60.2,29.95,West,269,8.0,10.0,49,0.00,,BKN0605,0.01,142.00,VWS V14.01,2013-05-07 23:10:00,
2013-05-07 19:15:00,80.7,59.8,29.95,WNW,284,7.0,10.0,49,0.00,,BKN0605,0.01,127.00,VWS V14.01,2013-05-07 23:15:00,
2013-05-07 19:20:00,80.3,60.0,29.96,West,279,4.0,11.0,50,0.00,,BKN0605,0.01,111.00,VWS V14.01,2013-05-07 23:20:00,
2013-05-07 19:25:00,79.9,60.2,29.96,WNW,291,5.0,7.0,51,0.00,,BKN0605,0.01,98.00,VWS V14.01,2013-05-07 23:25:00,
2013-05-07 19:30:00,79.4,60.3,29.96,WNW,286,6.0,10.0,52,0.00,,BKN0605,0.01,88.00,VWS V14.01,2013-05-07 23:30:00,
2013-05-07 19:35:00,78.9,60.3,29.96,WNW,298,7.0,7.0,53,0.00,,BKN0605,0.01,83.00,VWS V14.01,2013-05-07 23:35:00,
2013-05-07 19:40:00,78.5,60.5,29.97,WSW,256,4.0,7.0,54,0.00,,BKN0605,0.01,77.00,VWS V14.01,2013-05-07 23:40:00,
2013-05-07 19:45:00,78.2,60.7,29.97,West,281,4.0,5.0,55,0.00,,BKN0605,0.01,72.00,VWS V14.01,2013-05-07 23:45:00,
2013-05-07 19:50:00,77.9,61.0,29.97,WNW,282,1.0,4.0,56,0.00,,BKN0605,0.01,67.00,VWS V14.01,2013-05-07 23:50:00,
2013-05-07 19:55:00,77.6,61.2,29.97,WNW,282,2.0,3.0,57,0.00,,BKN0600,0.01,67.00,VWS V14.01,2013-05-07 23:55:00,
2013-05-07 20:00:00,77.3,61.4,29.97,West,273,3.0,6.0,58,0.00,,BKN0600,0.01,63.00,VWS V14.01,2013-05-08 00:00:00,
2013-05-07 20:05:00,76.9,61.0,29.97,WNW,297,5.0,6.0,58,0.00,,BKN0600,0.01,63.00,VWS V14.01,2013-05-08 00:05:00,
2013-05-07 20:10:00,76.4,61.0,29.98,West,277,5.0,6.0,59,0.00,,BKN0600,0.01,62.00,VWS V14.01,2013-05-08 00:10:00,
2013-05-07 20:15:00,76.1,61.2,29.98,West,275,1.0,4.0,60,0.00,,BKN0600,0.01,62.00,VWS V14.01,2013-05-08 00:15:00,
2013-05-07 20:20:00,75.9,61.5,29.98,West,274,1.0,3.0,61,0.00,,BKN0600,0.01,62.00,VWS V14.01,2013-05-08 00:20:00,
2013-05-07 20:25:00,75.6,61.2,29.98,WNW,288,3.0,4.0,61,0.00,,BKN0600,0.01,62.00,VWS V14.01,2013-05-08 00:25:00,
2013-05-07 20:30:00,75.3,60.9,29.98,West,279,0.0,4.0,61,0.00,,BKN0600,0.01,62.00,VWS V14.01,2013-05-08 00:30:00,
2013-05-07 20:35:00,75.1,61.2,29.99,West,260,1.0,4.0,62,0.00,,BKN0600,0.01,62.00,VWS V14.01,2013-05-08 00:35:00,
2013-05-07 20:40:00,74.7,60.4,29.99,WSW,241,2.0,10.0,61,0.00,,BKN0600,0.01,62.00,VWS V14.01,2013-05-08 00:40:00,
2013-05-07 20:45:00,74.3,60.0,29.99,West,278,4.0,9.0,61,0.00,,BKN0600,0.01,62.00,VWS V14.01,2013-05-08 00:45:00,
2013-05-07 20:50:00,74.0,59.7,29.99,SW,234,10.0,10.0,61,0.00,,BKN0600,0.01,62.00,VWS V14.01,2013-05-08 00:50:00,
2013-05-07 20:55:00,73.9,59.6,29.99,WSW,245,1.0,9.0,61,0.00,,CLR,0.01,62.00,VWS V14.01,2013-05-08 00:55:00,
2013-05-07 21:00:00,73.7,59.9,29.99,WSW,240,4.0,6.0,62,0.00,,CLR,0.01,62.00,VWS V14.01,2013-05-08 01:00:00,
2013-05-07 21:05:00,73.5,59.7,29.99,West,260,1.0,9.0,62,0.00,,CLR,0.01,62.00,VWS V14.01,2013-05-08 01:05:00,
2013-05-07 21:10:00,73.3,60.0,30.00,WSW,239,5.0,7.0,63,0.00,,CLR,0.01,62.00,VWS V14.01,2013-05-08 01:10:00,
2013-05-07 21:15:00,73.0,59.7,30.00,WSW,256,4.0,7.0,63,0.00,,CLR,0.01,62.00,VWS V14.01,2013-05-08 01:15:00,
2013-05-07 21:20:00,72.8,59.9,30.00,SSW,211,0.0,6.0,64,0.00,,CLR,0.01,62.00,VWS V14.01,2013-05-08 01:20:00,
2013-05-07 21:25:00,72.5,60.1,30.00,WSW,252,0.0,5.0,65,0.00,,CLR,0.01,62.00,VWS V14.01,2013-05-08 01:25:00,
2013-05-07 21:30:00,72.3,59.9,30.00,West,271,3.0,6.0,65,0.00,,CLR,0.01,62.00,VWS V14.01,2013-05-08 01:30:00,
2013-05-07 21:35:00,71.9,60.4,30.00,WNW,286,5.0,9.0,67,0.00,,CLR,0.01,62.00,VWS V14.01,2013-05-08 01:35:00,
2013-05-07 21:40:00,71.5,60.0,30.01,West,268,6.0,8.0,67,0.00,,CLR,0.01,62.00,VWS V14.01,2013-05-08 01:40:00,
2013-05-07 21:45:00,71.2,60.1,30.01,West,262,7.0,8.0,68,0.00,,CLR,0.01,62.00,VWS V14.01,2013-05-08 01:45:00,
2013-05-07 21:50:00,71.0,59.9,30.01,SW,227,5.0,7.0,68,0.00,,CLR,0.01,62.00,VWS V14.01,2013-05-08 01:50:00,
2013-05-07 21:55:00,70.8,59.7,30.01,West,265,3.0,7.0,68,0.00,,CLR,0.01,62.00,VWS V14.01,2013-05-08 01:55:00,
2013-05-07 22:00:00,70.7,59.6,30.02,WSW,241,4.0,9.0,68,0.00,,CLR,0.01,62.00,VWS V14.01,2013-05-08 02:00:00,
2013-05-07 22:05:00,70.6,59.5,30.02,West,259,0.0,7.0,68,0.00,,CLR,0.01,62.00,VWS V14.01,2013-05-08 02:05:00,
2013-05-07 22:10:00,70.6,59.5,30.02,WSW,251,5.0,7.0,68,0.00,,CLR,0.01,62.00,VWS V14.01,2013-05-08 02:10:00,
2013-05-07 22:15:00,70.5,59.8,30.02,South,182,2.0,7.0,69,0.00,,CLR,0.01,62.00,VWS V14.01,2013-05-08 02:15:00,
2013-05-07 22:20:00,70.4,59.8,30.02,WSW,254,2.0,5.0,69,0.00,,CLR,0.01,62.00,VWS V14.01,2013-05-08 02:20:00,
2013-05-07 22:25:00,70.3,60.1,30.02,SW,225,3.0,7.0,70,0.00,,CLR,0.01,62.00,VWS V14.01,2013-05-08 02:25:00,
2013-05-07 22:30:00,70.2,60.0,30.02,WSW,239,0.0,6.0,70,0.00,,CLR,0.01,62.00,VWS V14.01,2013-05-08 02:30:00,
2013-05-07 22:35:00,70.1,60.3,30.02,WSW,257,1.0,8.0,71,0.00,,CLR,0.01,62.00,VWS V14.01,2013-05-08 02:35:00,
2013-05-07 22:40:00,69.9,60.1,30.03,WSW,257,4.0,5.0,71,0.00,,CLR,0.01,62.00,VWS V14.01,2013-05-08 02:40:00,
2013-05-07 22:45:00,69.8,60.4,30.02,WSW,248,7.0,7.0,72,0.00,,CLR,0.01,62.00,VWS V14.01,2013-05-08 02:45:00,
2013-05-07 22:50:00,69.6,60.2,30.03,WSW,254,0.0,5.0,72,0.00,,CLR,0.01,62.00,VWS V14.01,2013-05-08 02:50:00,
2013-05-07 22:55:00,69.5,60.5,30.03,WSW,238,1.0,2.0,73,0.00,,CLR,0.01,62.00,VWS V14.01,2013-05-08 02:55:00,
2013-05-07 23:00:00,69.4,60.4,30.03,SW,219,2.0,4.0,73,0.00,,CLR,0.01,62.00,VWS V14.01,2013-05-08 03:00:00,
2013-05-07 23:05:00,69.2,60.6,30.03,WSW,247,1.0,4.0,74,0.00,,CLR,0.01,62.00,VWS V14.01,2013-05-08 03:05:00,
2013-05-07 23:10:00,69.1,60.5,30.03,WSW,238,4.0,4.0,74,0.00,,CLR,0.01,62.00,VWS V14.01,2013-05-08 03:10:00,
2013-05-07 23:15:00,68.9,60.7,30.03,SW,225,4.0,4.0,75,0.00,,CLR,0.01,62.00,VWS V14.01,2013-05-08 03:15:00,
2013-05-07 23:20:00,68.8,60.6,30.03,SW,232,1.0,3.0,75,0.00,,CLR,0.01,62.00,VWS V14.01,2013-05-08 03:20:00,
2013-05-07 23:25:00,68.6,60.7,30.03,SW,230,3.0,3.0,76,0.00,,CLR,0.01,62.00,VWS V14.01,2013-05-08 03:25:00,
2013-05-07 23:30:00,68.4,60.5,30.03,SW,215,0.0,3.0,76,0.00,,CLR,0.01,62.00,VWS V14.01,2013-05-08 03:30:00,
2013-05-07 23:35:00,68.3,60.8,30.03,SW,219,0.0,2.0,77,0.00,,CLR,0.01,62.00,VWS V14.01,2013-05-08 03:35:00,
2013-05-07 23:40:00,68.2,60.7,30.03,SW,219,0.0,1.0,77,0.00,,CLR,0.01,62.00,VWS V14.01,2013-05-08 03:40:00,
2013-05-07 23:45:00,68.0,60.9,30.03,SW,220,0.0,3.0,78,0.00,,CLR,0.01,62.00,VWS V14.01,2013-05-08 03:45:00,
2013-05-07 23:50:00,67.9,61.2,30.03,SW,220,0.0,1.0,79,0.00,,CLR,0.01,62.00,VWS V14.01,2013-05-08 03:50:00,
2013-05-07 23:55:00,67.7,61.0,30.03,SW,220,0.0,3.0,79,0.00,,CLR,0.01,62.00,VWS V14.01,2013-05-08 03:55:00,